Location: Cambroso
(45.2833°N, 12.0850°E)
Time: 10:05:56
(UTC+00:00)

USA 229 - Pass Details

Date: 21 January 2021
Orbit: 964 x 1248 km, 63.4° (Epoch: 26 February)

Event Time Altitude Azimuth Distance (km) Brightness Sun altitude
Rises 18:56:29 0° 321° (NW) 3,958 7.2 -30.1°
Reaches altitude 10° 18:59:06 10° 322° (NW) 3,035 6.5 -30.6°
Maximum altitude 19:06:27 90° 39° (NE) 1,199 3.8 -31.9°
Enters shadow 19:06:44 84° 139° (SE) 1,205 3.7 -31.9°
